Home > Weather > Benxi > Past weeks

Flag for China Weather for the Past 2 Weeks in Benxi, Liaoning, China

Now
50 °F

Light rain. More clouds than sun.


Feels Like: 45 °F
Forecast: 42 / 55 °F
Wind: 13 mph from Northwest

Location: Shenyang / Taoxian

Current Time: May 4, 2016 at 8:14:10 AM

Latest Report: May 4, 2016 at 7:00 AM


Visibility: N/A

Pressure: 29.47 "Hg

Humidity: 76%

Dew Point: 43 °F

Location of BenxiLocation

Historic Weather in Benxi — Graph

°F

Benxi Temperature Yesterday

Maximum temperature yesterday: 54 °F (at 12:00 AM)
Minimum temperature yesterday: 46 °F (at 6:30 PM)
Average temperature yesterday: 50 °F

High & Low Weather Summary for the Past Weeks

 TemperatureHumidityPressure
High77 °F (May 2, 12:30 PM)100% (May 3, 3:00 AM)30.12 "Hg (May 3, 3:00 AM)
Low39 °F (Apr 23, 5:00 AM)11% (Apr 22, 12:00 PM)28.85 "Hg (May 3, 12:30 PM)
Average58 °F53%29.77 "Hg
* Reported Apr 19 7:30 AM — May 4 7:00 AM, Benxi, Weather by CustomWeather, © 2016

Note: Actual official high and low records may vary slightly from our data, if they occured in-between our weather recording intervals... More about our weather records

Advertising

Benxi Weather History for the Previous 24 Hours

Scroll right to see more
 ConditionsComfort  
Time TempWeatherWind HumidityBarometerVisibility
7:00 AM
Wed, May 4
50 °FLight rain. More clouds than sun.13 mph76%29.47 "HgN/A
6:30 AM48 °FLight rain. More clouds than sun.13 mph87%29.47 "Hg5 mi
6:00 AM48 °FLight rain. Mostly cloudy.17 mph82%29.45 "Hg5 mi
5:30 AM48 °FLight rain. Mostly cloudy.17 mph82%29.42 "Hg5 mi
5:00 AM48 °FLight rain. Mostly cloudy.15 mph82%29.42 "Hg4 mi
4:30 AM46 °FLight rain. Mostly cloudy.10 mph93%29.39 "HgN/A
4:00 AM48 °FLight rain. Mostly cloudy.15 mph82%29.39 "HgN/A
3:30 AM48 °FLight rain. Mostly cloudy.20 mph82%29.36 "HgN/A
3:00 AM48 °FLight rain. Mostly cloudy.20 mph82%29.36 "HgN/A
2:30 AM48 °FLight rain. Mostly cloudy.22 mph82%29.33 "HgN/A
2:00 AM46 °FLight rain. Mostly cloudy.13 mph87%29.33 "HgN/A
1:30 AM46 °FLight rain. Mostly cloudy.20 mph87%29.33 "HgN/A
1:00 AM46 °FLight rain. Mostly cloudy.13 mph87%29.30 "HgN/A
12:30 AM46 °FLight rain. Mostly cloudy.20 mph82%29.30 "HgN/A
12:00 AM46 °FLight rain. Mostly cloudy.17 mph82%29.30 "HgN/A
11:30 PM
Tue, May 3
46 °FLight rain. Mostly cloudy.17 mph82%29.27 "HgN/A
11:00 PM46 °FLight rain. Mostly cloudy.22 mph82%29.27 "HgN/A
10:30 PM46 °FLight rain. Mostly cloudy.20 mph82%29.24 "HgN/A
10:00 PM46 °FLight rain. Mostly cloudy.20 mph82%29.24 "HgN/A
9:30 PM46 °FLight rain. Mostly cloudy.20 mph82%29.24 "HgN/A
9:00 PM46 °FLight rain. Passing clouds.20 mph82%29.21 "HgN/A
8:30 PM46 °FLight rain. Mostly cloudy.24 mph82%29.18 "HgN/A
7:30 PM46 °FLight rain. Mostly cloudy.22 mph82%29.12 "HgN/A
7:00 PM46 °FLight rain. Mostly cloudy.29 mph82%29.09 "HgN/A
6:30 PM46 °FLight rain. More clouds than sun.24 mph87%29.06 "HgN/A
6:00 PM48 °FLight rain. More clouds than sun.24 mph82%29.03 "HgN/A
5:30 PM48 °FLight rain. More clouds than sun.26 mph82%29.00 "HgN/A
5:00 PM48 °FLight rain. More clouds than sun.24 mph87%28.97 "Hg5 mi
4:30 PM48 °FLight rain. More clouds than sun.22 mph87%28.94 "Hg5 mi
4:00 PM48 °FLight rain. More clouds than sun.29 mph87%28.91 "Hg4 mi
3:30 PM48 °FLight rain. Mostly cloudy.24 mph87%28.88 "Hg4 mi
3:00 PM48 °FLight rain. Mostly cloudy.26 mph94%28.88 "Hg3 mi
2:30 PM50 °FLight rain. More clouds than sun.26 mph88%28.88 "Hg2 mi
2:00 PM50 °FLight rain. More clouds than sun.24 mph94%28.85 "Hg3 mi
1:30 PM50 °FLight rain. More clouds than sun.24 mph94%28.85 "Hg3 mi
1:00 PM52 °FLight rain. Mostly cloudy.24 mph94%28.85 "Hg3 mi
12:30 PM54 °FLight rain. More clouds than sun.22 mph94%28.85 "Hg3 mi
12:00 PM54 °FLight rain. More clouds than sun.20 mph94%28.88 "Hg3 mi
11:30 AM54 °FLight rain. More clouds than sun.17 mph94%28.88 "Hg4 mi
11:00 AM54 °FLight rain. More clouds than sun.17 mph94%28.91 "HgN/A
10:30 AM54 °FLight rain. More clouds than sun.17 mph94%28.94 "Hg6 mi
9:30 AM52 °FLight rain. More clouds than sun.17 mph94%29.00 "Hg5 mi
9:00 AM52 °FLight rain. More clouds than sun.17 mph94%29.03 "Hg6 mi
8:30 AM52 °FLight rain. More clouds than sun.17 mph94%29.03 "Hg5 mi
8:00 AM52 °FLight rain. More clouds than sun.17 mph94%29.06 "Hg5 mi
Weather by CustomWeather, © 2016

See weather overviewHow to use our weather pages